sat.trackr.live / text

‹ back to catalog

STARLINK-5220

NORAD 54760 · 2022-175C

PAYLOAD ACTIVE UNKNOWN

§ Identity

Operator
Country
US
Launch date
2022-12-17
Launch site
AFETR
Launch vehicle
Mass (kg)
RCS (m²)

Purposes: comms

External: N2YO · Heavens-Above · Gunter

§ Orbital elements

Epoch: 2026-05-25T04:18:03.451968Z

Period
95.44 min
Inclination
53.2144°
Eccentricity
0.0001823
Mean motion
15.08848739 rev/d
Perigee alt
538.5 km
Apogee alt
541.0 km
Semi-major
6,917.9 km
B*
-7.5167e-5
RAAN
60.9325°
Arg perigee
91.6071°
Mean anomaly
268.5130°
Rev number
19,146

§ Raw data

STARLINK-52201 54760U 22175C   26145.17920662 -.00001485  00000+0 -75167-4 0  99992 54760  53.2144  60.9325 0001823  91.6071 268.5130 15.08848739191465

JSON: /api/v1/satellites/54760 · /tle

For live sub-satellite position, see the globe view (requires WebGL).

§ Visibility from observer

Set your observer location to see the next 7 days of passes ≥ 10°. The values pass through the URL so the page stays shareable.

No JS? Fill the form by hand. The geolocation button needs JavaScript.